Location: Waning Moon II Observatory
(30.3730°N, 89.7620°W)
Time: 10:42:53
(UTC-05:00)

Cosmos 1825 Rocket - Visible Passes

Search period start: 26 May 2018 00:00
Search period end: 05 June 2018 00:00
Orbit: 605 x 630 km, 82.5° (Epoch: 25 May)

Date Brightness Start Highest point End Pass type
(mag) Time Alt. Az. Time Alt. Az. Time Alt. Az.
26 May 6.6 01:31:56 12° NNW 01:31:56 12° NNW 01:32:15 10° NNW visible
28 May 6.5 00:28:11 13° NNE 00:28:11 13° NNE 00:28:38 10° NNE visible
29 May 6.5 00:44:50 14° N 00:44:50 14° N 00:45:32 10° N visible
30 May 6.5 01:01:28 13° NNW 01:01:28 13° NNW 01:02:02 10° NNW visible
30 May 6.5 23:41:00 11° NNE 23:41:00 11° NNE 23:41:07 10° NNE visible
31 May 6.3 23:57:37 15° NNE 23:57:37 15° NNE 23:58:26 10° NNE visible
02 Jun 6.2 00:14:12 17° N 00:14:12 17° N 00:15:19 10° N visible
03 Jun 6.3 00:30:47 16° NNW 00:30:47 16° NNW 00:31:49 10° NNW visible
03 Jun 6.1 23:10:15 13° NE 23:10:15 13° NE 23:10:55 10° NNE visible
04 Jun 6.6 00:47:22 11° NW 00:47:22 11° NW 00:47:41 10° NW visible
04 Jun 5.9 23:26:49 20° NNE 23:26:49 20° NNE 23:28:13 10° NNE visible
